sat.trackr.live / text

‹ back to catalog

STARLINK-34560

NORAD 64700 · 2025-142E

PAYLOAD ACTIVE UNKNOWN

§ Identity

Operator
Country
US
Launch date
2025-06-28
Launch site
AFWTR
Launch vehicle
Mass (kg)
RCS (m²)

Purposes: comms

External: N2YO · Heavens-Above · Gunter

§ Orbital elements

Epoch: 2026-09-20T17:10:27.122880Z

Period
94.15 min
Inclination
70.0008°
Eccentricity
0.0002664
Mean motion
15.29510947 rev/d
Perigee alt
475.4 km
Apogee alt
479.1 km
Semi-major
6,855.4 km
B*
-1.1348e-3
RAAN
180.3131°
Arg perigee
261.2115°
Mean anomaly
98.8758°
Rev number
6,871

§ Raw data

STARLINK-345601 64700U 25142E   26263.71559170 -.00032538  00000+0 -11348-2 0  99962 64700  70.0008 180.3131 0002664 261.2115  98.8758 15.29510947 68717

JSON: /api/v1/satellites/64700 · /tle

For live sub-satellite position, see the globe view (requires WebGL).

§ Visibility from observer

Set your observer location to see the next 7 days of passes ≥ 10°. The values pass through the URL so the page stays shareable.

No JS? Fill the form by hand. The geolocation button needs JavaScript.